Regional Weather Roundup
Issued by NWS Newport/Morehead, NC

Current Version | Previous Version | Text Only | Print | Product List | Glossary On
Versions: 1 2 3 4 5 6 7 8 9 10 11 12 13 14 15 16 17 18 19 20 21 22 23 24 25 26 27 28 29 30 31 32 33 34 35 36 37 38 39 40 41 42 43 44 45 46 47 48 49 50
000 ASUS42 KMHX 220110 RWRMHX WEATHER ROUNDUP FOR EASTERN NORTH CAROLINA NATIONAL WEATHER SERVICE NEWPORT/MOREHEAD CITY NC 900 PM EDT SUN SEP 21 2014 NOTE: "FAIR" INDICATES FEW OR NO CLOUDS BELOW 12,000 FEET WITH NO SIGNIFICANT WEATHER AND/OR OBSTRUCTIONS TO VISIBILITY NCZ015>017-031-032-045>047-102-103-220200- NORTH COAST CITY SKY/WX TMP DP RH WIND PRES REMARKS EDENTON CLEAR 74 67 78 SW7 29.81R ELIZABETH CITY CLEAR 72 66 81 SW8 29.80R KITTY HAWK CLEAR 73 67 79 SW7 29.80R MANTEO CLEAR 73 67 80 SW10 29.82R $$ NCZ045>047-081-094-103-104-220200- CENTRAL COAST CITY SKY/WX TMP DP RH WIND PRES REMARKS FRISCO CLEAR 74 67 78 W10 29.85R SWANQUARTER N/A 75 N/A N/A SW13 29.79S $$ NCZ095-097-098-100-101-220200- SOUTHERN COAST CITY SKY/WX TMP DP RH WIND PRES REMARKS BEAUFORT CLEAR 78 70 76 SW13 29.87R CEDAR ISLAND N/A 73 N/A N/A S7G13 29.88S JACKSONVILLE CLEAR 73 64 73 SW6 29.87R NEWPORT NOT AVBL PINEY ISLAND CLEAR 74 67 78 S7 29.86R WILMINGTON CLEAR 76 67 73 SW9 29.89R $$ NCZ011>013-027>030-043-044-078>080-089-090>093-098-220200- COASTAL PLAIN CITY SKY/WX TMP DP RH WIND PRES REMARKS AHOSKIE CLEAR 73 65 77 S3 29.80R CLINTON CLEAR 75 67 76 CALM 29.87R ELIZABETHTOWN CLEAR 75 66 72 S3 29.88R GOLDSBORO CLEAR 76 70 81 CALM 29.84R GREENVILLE CLEAR 73 66 78 SW8 29.86R HAVELOCK CLEAR 75 63 66 SW9 29.87R KENANSVILLE CLEAR 72 65 78 CALM 29.87R KINSTON CLEAR 73 66 78 SW6 29.86R NEW BERN CLEAR 75 64 68 SW8 29.86R RICHLANDS CLEAR 72 63 73 SW9 29.87R ROANOKE RAPIDS NOT AVBL ROCKY MOUNT CLEAR 74 66 76 SW7 29.83R WASHINGTON CLEAR 74 65 72 SW6 29.83R WHITEVILLE CLEAR 75 66 73 CALM 29.90R $$ AMZ130-135-150-152-154-156-158-170-250-252-270-ANZ085-086-088-633-658-670-220200- MARINE OBSERVATIONS STATION/POSITION TIME TEMP WIND PRES WAVE SWELL AIR SEA DIR/SP/G HT/PER HT/PER (UTC) (F) (DEG/KT/KT) (MB) (FT/S) (FT/S) CHESAPEAKE LIGHT 0000 77 230/ 15/ 16 1007.8 BUOY 44014 0100 75 77 230/ 14/ 17 1007.8 5/ 8 3/ 8 DUCK 0100 76 74 220/ 9/ 12 1008.3 2E DUCK 0100 N/A 4/ 8 OREGON INLET 0100 76 76 220/ 13/ 15 1009.5 BUOY 44095 0100 74 N/A 6/ 9 2/11 20E OREGON INLET NOT AVBL HATTERAS CG NOT AVBL DIAMOND BUOY 0100 79 240/ 17/ 23 1010.4 6/10 5/10 CAPE LOOKOUT 0000 78 230/ 9/ 12 1010.9 BEAUFORT LAB 0100 78 76 220/ 6/ 9 1011.0 30 SE NEW RIVER 0100 81 83 240/ 19/ 21 1012.1 4/ 8 3/ 8 5 SE WRIGHTSVILL 0000 76 79 240/ 14/ 17 N/A BUOY 41002 0011 80 81 260/ 12/ 14 1014.7 8/ 8 7/ 8 BUOY 41004 0100 81 82 230/ 14/ 17 1013.6 3/ 7 2/ 7 $$

USA.gov is the U.S. government's official web portal to all federal, state and local government web resources and services.